Location: Ariel
(45.9570°N, 122.5700°W)
Time: 18:21:49
(UTC-07:00)

Transit 4A - Pass Details

Date: 27 July 2019
Orbit: 863 x 981 km, 66.8° (Epoch: 21 August)

Event Time Altitude Azimuth Distance (km) Brightness Sun altitude
Exits shadow 02:00:24 38° 240° (WSW) 1,443 8.5 -24.1°
Maximum altitude 02:02:50 65° 307° (NW) 1,077 8.2 -24.0°
Drops below altitude 10° 02:09:14 10° 29° (NNE) 2,739 11.4 -23.7°
Sets 02:11:50 0° 32° (NNE) 3,684 12.2 -23.6°
